QPF
0.00 0.00 0.00 0.00 0.00 0.00 0.00 0.00 0.00 0.00 0.00 0.00 0.00 0.00 0.00 0.00 0.00 0.00 0.00 0.00 0.00 0.00 0.00 0.00 0.00 0.00 0.00 0.00 0.00 0.00 0.00 0.00 0.00 0.02 0.02 0.00 0.00 0.00 0.00 0.00 0.01 0.00 0.00 0.00
0.00 0.00 0.00 0.00 0.00 0.00 0.00 0.00 0.00 0.00 0.00 0.00 0.00 0.00 0.00 0.00 0.00 0.00 0.00 0.00 0.00 0.00 0.00 0.00 0.00 0.00 0.00 0.00 0.00 0.00 0.00 0.00 0.00 0.00 0.01 0.03 0.00 0.00 0.02 0.03 0.02 0.00 0.01 0.00
0.00 0.00 0.00 0.00 0.00 0.00 0.00 0.00 0.00 0.00 0.00 0.00 0.00 0.00 0.00 0.00 0.00 0.00 0.00 0.00 0.00 0.00 0.00 0.00 0.00 0.00 0.00 0.00 0.00 0.00 0.00 0.00 0.00 0.00 0.01 0.01 0.00 0.04 0.04 0.00 0.00 0.00 0.00 0.01
0.00 0.00 0.00 0.00 0.00 0.00 0.00 0.00 0.00 0.00 0.00 0.00 0.00 0.00 0.00 0.00 0.00 0.00 0.01 0.00 0.00 0.00 0.00 0.00 0.00 0.00 0.00 0.01 0.01 0.00 0.00 0.00 0.00 0.00 0.00 0.02 0.05 0.07 0.01 0.00 0.01 0.00 0.00 0.00
0.00 0.00 0.00 0.00 0.00 0.00 0.00 0.00 0.00 0.00 0.00 0.00 0.00 0.00 0.00 0.00 0.00 0.00 0.01 0.02 0.02 0.00 0.00 0.00 0.00 0.00 0.00 0.00 0.00 0.00 0.02 0.00 0.00 0.00 0.00 0.01 0.04 0.05 0.04 0.01 0.02 0.02 0.01 0.00
0.00 0.00 0.00 0.00 0.00 0.00 0.00 0.00 0.00 0.00 0.00 0.00 0.00 0.00 0.00 0.00 0.00 0.00 0.00 0.00 0.00 0.00 0.00 0.00 0.00 0.00 0.00 0.00 0.00 0.01 0.02 0.02 0.00 0.00 0.00 0.01 0.03 0.09 0.05 0.00 0.00 0.01 0.00 0.00
0.00 0.00 0.00 0.00 0.00 0.00 0.00 0.00 0.00 0.00 0.00 0.00 0.00 0.00 0.00 0.00 0.00 0.00 0.00 0.01 0.02 0.00 0.00 0.00 0.00 0.00 0.00 0.00 0.00 0.00 0.00 0.02 0.00 0.00 0.00 0.00 0.00 0.08 0.09 0.02 0.01 0.00 0.00 0.00
0.00 0.00 0.00 0.00 0.00 0.00 0.00 0.00 0.00 0.00 0.00 0.00 0.00 0.00 0.00 0.00 0.00 0.00 0.01 0.05 0.04 0.01 0.01 0.00 0.00 0.00 0.00 0.00 0.00 0.00 0.00 0.00 0.00 0.00 0.00 0.00 0.01 0.08 0.05 0.00 0.00 0.00 0.00 0.00
0.00 0.00 0.00 0.00 0.00 0.00 0.00 0.00 0.00 0.00 0.00 0.00 0.00 0.00 0.00 0.00 0.00 0.00 0.01 0.05 0.02 0.02 0.02 0.04 0.00 0.00 0.01 0.01 0.00 0.00 0.00 0.00 0.00 0.00 0.01 0.01 0.07 0.27 0.16 0.04 0.05 0.01 0.01 0.00
0.00 0.00 0.00 0.00 0.00 0.00 0.00 0.00 0.00 0.00 0.00 0.00 0.00 0.00 0.00 0.00 0.01 0.00 0.00 0.00 0.00 0.00 0.00 0.02 0.01 0.00 0.00 0.00 0.01 0.02 0.01 0.02 0.02 0.01 0.01 0.05 0.37 0.21 0.16 0.21 0.18 0.14 0.09 0.03
0.00 0.00 0.00 0.00 0.00 0.00 0.00 0.00 0.00 0.00 0.00 0.00 0.00 0.00 0.00 0.00 0.00 0.00 0.00 0.00 0.00 0.00 0.00 0.00 0.00 0.00 0.00 0.00 0.10 0.18 0.23 0.20 0.23 0.24 0.43 0.54 0.37 0.25 0.23 0.18 0.10 0.05 0.03 0.00
0.00 0.00 0.00 0.00 0.00 0.00 0.00 0.00 0.00 0.00 0.00 0.00 0.00 0.00 0.00 0.00 0.00 0.00 0.00 0.00 0.00 0.00 0.00 0.00 0.02 0.00 0.00 0.00 0.05 0.22 0.49 0.43 0.34 0.32 0.49 0.44 0.39 0.22 0.08 0.08 0.06 0.02 0.00 0.00
0.00 0.00 0.00 0.00 0.00 0.00 0.00 0.00 0.00 0.00 0.00 0.00 0.00 0.00 0.00 0.00 0.00 0.00 0.00 0.00 0.00 0.00 0.00 0.01 0.02 0.02 0.07 0.07 0.16 0.30 0.22 0.09 0.18 0.34 0.45 0.36 0.33 0.23 0.05 0.04 0.02 0.00 0.00 0.00
0.00 0.00 0.00 0.00 0.00 0.00 0.00 0.00 0.00 0.00 0.00 0.00 0.00 0.00 0.00 0.00 0.00 0.00 0.00 0.00 0.00 0.00 0.00 0.00 0.00 0.03 0.13 0.13 0.08 0.12 0.09 0.10 0.20 0.25 0.44 0.33 0.21 0.06 0.00 0.00 0.00 0.00 0.00 0.00
0.00 0.00 0.00 0.00 0.00 0.00 0.00 0.00 0.00 0.00 0.00 0.00 0.00 0.00 0.00 0.00 0.00 0.00 0.00 0.00 0.00 0.00 0.00 0.00 0.00 0.04 0.10 0.14 0.15 0.25 0.20 0.24 0.33 0.30 0.26 0.18 0.08 0.01 0.00 0.00 0.00 0.00 0.00 0.00
0.00 0.00 0.00 0.00 0.00 0.00 0.00 0.00 0.00 0.00 0.00 0.00 0.00 0.00 0.00 0.00 0.00 0.00 0.00 0.00 0.00 0.00 0.00 0.00 0.00 0.00 0.01 0.00 0.00 0.02 0.03 0.02 0.03 0.04 0.03 0.01 0.00 0.00 0.00 0.00 0.00 0.00 0.00 0.00
0.00 0.00 0.00 0.00 0.00 0.00 0.00 0.00 0.00 0.00 0.00 0.00 0.00 0.00 0.00 0.00 0.00 0.00 0.00 0.00 0.00 0.00 0.00 0.01 0.01 0.00 0.02 0.01 0.00 0.00 0.00 0.00 0.00 0.00 0.00 0.00 0.00 0.00 0.00 0.00 0.00 0.00 0.00 0.00
0.00 0.00 0.00 0.00 0.00 0.00 0.00 0.00 0.00 0.00 0.00 0.00 0.00 0.00 0.00 0.00 0.00 0.00 0.00 0.00 0.00 0.00 0.00 0.01 0.00 0.00 0.00 0.00 0.00 0.00 0.00 0.00 0.00 0.00 0.00 0.00 0.00 0.00 0.00 0.00 0.00 0.00 0.00 0.00
0.00 0.00 0.00 0.00 0.00 0.00 0.00 0.00 0.00 0.00 0.00 0.00 0.00 0.00 0.00 0.00 0.00 0.00 0.00 0.00 0.00 0.00 0.00 0.00 0.00 0.00 0.00 0.00 0.00 0.00 0.00 0.00 0.00 0.00 0.00 0.00 0.00 0.00 0.00 0.00 0.00 0.00 0.00 0.00
0.00 0.00 0.00 0.00 0.00 0.00 0.00 0.00 0.00 0.00 0.00 0.00 0.00 0.00 0.00 0.00 0.00 0.00 0.00 0.00 0.00 0.00 0.00 0.00 0.00 0.00 0.00 0.00 0.00 0.00 0.00 0.00 0.00 0.00 0.00 0.00 0.00 0.00 0.00 0.00 0.00 0.00 0.00 0.00
0.00 0.00 0.00 0.00 0.00 0.00 0.00 0.00 0.00 0.00 0.00 0.00 0.00 0.00 0.00 0.00 0.00 0.00 0.00 0.00 0.00 0.00 0.00 0.00 0.00 0.00 0.00 0.00 0.00 0.00 0.00 0.00 0.00 0.00 0.00 0.00 0.00 0.00 0.00 0.00 0.00 0.00 0.00 0.00
0.00 0.00 0.00 0.00 0.00 0.00 0.00 0.00 0.00 0.00 0.00 0.00 0.00 0.00 0.00 0.00 0.00 0.00 0.00 0.00 0.00 0.00 0.00 0.00 0.00 0.00 0.00 0.00 0.00 0.00 0.00 0.00 0.00 0.00 0.00 0.00 0.00 0.00 0.00 0.00 0.00 0.00 0.00 0.00
0.00 0.00 0.00 0.00 0.00 0.00 0.00 0.00 0.00 0.00 0.00 0.00 0.00 0.00 0.00 0.00 0.00 0.00 0.00 0.00 0.00 0.00 0.00 0.00 0.00 0.00 0.00 0.00 0.00 0.00 0.00 0.00 0.00 0.00 0.00 0.00 0.00 0.00 0.00 0.00 0.00 0.00 0.00 0.00
0.00 0.00 0.00 0.00 0.00 0.00 0.00 0.00 0.00 0.00 0.00 0.00 0.00 0.00 0.00 0.00 0.00 0.00 0.00 0.00 0.00 0.00 0.00 0.00 0.00 0.00 0.00 0.00 0.00 0.00 0.00 0.00 0.00 0.00 0.00 0.00 0.00 0.00 0.00 0.00 0.00 0.00 0.00 0.00
0.00 0.00 0.00 0.00 0.00 0.00 0.00 0.00 0.00 0.00 0.00 0.00 0.00 0.00 0.00 0.00 0.00 0.00 0.00 0.00 0.00 0.00 0.00 0.00 0.00 0.00 0.00 0.00 0.00 0.00 0.00 0.00 0.00 0.00 0.00 0.00 0.00 0.00 0.00 0.00 0.00 0.00 0.00 0.00
0.00 0.00 0.00 0.00 0.00 0.00 0.00 0.00 0.00 0.00 0.00 0.00 0.00 0.00 0.00 0.00 0.00 0.00 0.00 0.00 0.00 0.00 0.00 0.00 0.00 0.00 0.00 0.00 0.00 0.00 0.00 0.00 0.00 0.00 0.00 0.00 0.00 0.00 0.00 0.00 0.00 0.00 0.00 0.00
MSLP
1004.36 1004.83 1004.95 1004.88 1005.03 1004.81 1004.82 1005.00 1004.86 1005.05 1005.30 1006.16 1006.79 1006.81 1007.33 1008.01 1008.49 1008.73 1008.97 1009.39 1009.62 1009.71 1009.83 1010.36 1010.77 1011.22 1011.76 1012.24 1012.61 1012.98 1013.36 1013.70 1014.42 1015.24 1015.69 1015.79 1015.75 1015.75 1015.72 1015.66 1015.60 1015.72 1015.63 1015.56
1004.98 1004.89 1004.19 1004.38 1004.43 1004.43 1004.31 1004.60 1004.58 1004.39 1004.76 1006.12 1006.97 1007.04 1007.31 1007.76 1007.78 1008.17 1008.52 1008.87 1009.05 1009.65 1009.96 1010.27 1010.57 1011.05 1011.33 1011.66 1012.21 1012.77 1013.13 1013.61 1013.98 1014.52 1015.02 1015.34 1015.61 1015.51 1015.28 1015.04 1015.09 1015.19 1015.24 1015.30
1005.01 1004.09 1003.80 1003.98 1003.85 1004.04 1004.11 1004.15 1004.02 1004.38 1005.24 1006.32 1007.17 1007.96 1007.79 1007.88 1007.94 1008.13 1008.14 1008.53 1009.00 1009.08 1009.46 1009.86 1010.28 1010.52 1011.12 1011.47 1011.61 1012.05 1012.38 1012.79 1013.53 1014.03 1014.70 1015.35 1015.68 1015.71 1015.65 1015.27 1015.02 1014.99 1014.88 1014.50
1004.49 1003.62 1003.55 1003.45 1003.54 1003.64 1003.82 1003.42 1003.87 1004.66 1005.57 1006.68 1007.07 1008.62 1007.76 1007.71 1007.60 1007.57 1007.86 1008.20 1008.49 1008.90 1009.14 1009.42 1009.79 1010.28 1010.20 1010.40 1010.99 1011.29 1011.95 1012.16 1012.75 1013.48 1013.95 1014.16 1014.81 1015.58 1015.24 1015.26 1014.88 1014.44 1014.19 1014.49
1004.09 1003.50 1003.28 1003.23 1002.86 1003.13 1003.20 1003.22 1003.92 1004.45 1005.92 1006.68 1007.69 1008.46 1007.69 1007.58 1007.77 1007.50 1007.56 1008.15 1008.27 1008.37 1008.66 1008.88 1008.90 1009.05 1009.26 1009.95 1010.37 1010.59 1011.43 1012.25 1012.51 1012.99 1013.39 1013.50 1013.66 1014.03 1014.23 1014.50 1014.72 1014.61 1014.44 1014.27
1003.88 1003.32 1003.01 1002.26 1001.94 1002.47 1002.72 1003.53 1004.80 1005.96 1006.77 1007.55 1007.67 1008.44 1008.22 1007.14 1005.91 1006.93 1007.19 1007.66 1008.14 1008.90 1008.63 1008.29 1008.54 1009.07 1009.40 1009.74 1010.42 1011.08 1011.57 1012.29 1012.19 1012.54 1012.73 1013.11 1013.31 1013.62 1014.40 1014.80 1014.58 1014.45 1014.29 1014.39
1004.16 1003.35 1002.42 1002.11 1002.37 1002.52 1003.19 1004.76 1006.15 1007.36 1008.23 1008.27 1007.98 1008.15 1006.97 1007.22 1007.12 1006.88 1007.05 1008.72 1009.08 1008.94 1008.81 1008.87 1008.46 1008.72 1009.01 1009.64 1009.98 1010.64 1011.35 1011.66 1012.10 1012.23 1012.27 1012.74 1013.42 1013.80 1014.10 1014.35 1014.29 1014.41 1014.30 1014.26
1004.86 1003.73 1002.49 1001.98 1002.21 1002.60 1003.54 1004.80 1006.44 1007.94 1008.95 1008.77 1008.14 1008.20 1007.49 1007.80 1007.45 1006.86 1007.49 1008.09 1008.19 1008.48 1008.46 1008.74 1009.42 1009.62 1009.03 1009.03 1009.56 1010.05 1010.28 1010.51 1011.40 1011.74 1012.13 1013.02 1013.12 1013.02 1013.27 1013.47 1013.69 1013.87 1013.84 1013.61
1004.84 1003.84 1002.43 1002.15 1001.84 1002.41 1003.74 1004.98 1005.83 1007.58 1009.08 1009.39 1009.12 1008.60 1008.24 1008.19 1007.95 1007.74 1007.93 1008.10 1008.10 1008.04 1007.93 1008.11 1008.16 1008.98 1010.18 1010.70 1010.26 1009.63 1009.68 1010.11 1010.88 1011.03 1011.45 1011.90 1012.46 1013.16 1013.07 1013.14 1013.17 1013.25 1013.46 1013.48
1004.43 1004.55 1003.07 1002.29 1002.14 1002.47 1003.02 1004.53 1006.17 1007.82 1009.33 1010.00 1009.75 1009.43 1009.52 1009.19 1009.00 1008.80 1008.62 1008.37 1008.59 1008.87 1008.59 1008.95 1009.10 1010.06 1010.89 1011.10 1011.24 1011.05 1010.58 1010.83 1011.41 1011.89 1011.53 1011.19 1012.08 1012.12 1012.59 1012.73 1012.81 1013.05 1013.22 1013.38
1004.48 1004.90 1004.01 1003.45 1003.40 1003.31 1003.93 1005.09 1006.73 1008.03 1008.89 1009.99 1010.36 1010.21 1009.22 1009.16 1009.39 1009.23 1008.91 1009.30 1009.36 1009.34 1009.10 1009.27 1010.05 1009.90 1011.18 1010.99 1011.58 1011.61 1012.32 1012.20 1012.89 1015.76 1012.46 1011.42 1011.81 1012.29 1012.72 1012.80 1012.71 1012.86 1012.95 1013.28
1003.98 1005.21 1005.51 1004.92 1004.61 1003.97 1004.35 1005.51 1006.79 1008.13 1009.37 1009.93 1010.17 1010.64 1009.88 1009.72 1009.85 1009.78 1009.49 1009.39 1009.34 1009.42 1009.45 1009.87 1010.27 1010.70 1011.70 1011.94 1011.30 1012.13 1012.28 1012.40 1014.66 1010.78 1011.53 1012.37 1012.72 1011.68 1011.86 1012.89 1012.91 1012.83 1012.88 1013.10
1003.74 1005.06 1005.90 1005.95 1005.40 1004.52 1005.02 1005.53 1006.17 1007.48 1008.44 1009.77 1010.37 1010.22 1010.49 1010.09 1010.57 1010.38 1010.22 1010.34 1010.29 1010.32 1010.03 1010.08 1010.23 1010.49 1011.49 1011.85 1010.95 1012.63 1011.48 1011.30 1013.32 1015.32 1012.89 1011.42 1012.51 1011.86 1012.12 1012.94 1012.69 1012.73 1012.85 1012.87
1002.61 1004.80 1005.14 1005.49 1005.35 1005.22 1005.52 1005.83 1006.17 1006.92 1008.31 1009.08 1009.09 1009.21 1010.22 1010.48 1010.97 1011.14 1011.24 1011.21 1011.21 1010.92 1010.65 1010.51 1010.69 1010.53 1010.05 1010.10 1009.56 1012.06 1011.45 1010.45 1013.16 1014.89 1014.71 1013.79 1012.59 1011.92 1012.02 1012.10 1012.07 1012.37 1012.83 1012.73
1003.04 1004.89 1005.21 1005.62 1005.24 1005.02 1005.13 1005.37 1005.58 1006.20 1006.81 1007.77 1007.66 1008.54 1008.39 1009.48 1010.66 1010.78 1011.06 1011.30 1011.41 1011.28 1010.99 1010.60 1010.40 1011.38 1010.19 1008.70 1009.90 1011.60 1012.35 1013.46 1014.45 1015.45 1015.24 1013.43 1012.49 1012.13 1011.64 1011.62 1012.05 1012.16 1012.57 1012.63
1003.54 1005.32 1005.73 1006.41 1005.92 1005.27 1004.83 1004.77 1005.04 1005.44 1005.99 1006.75 1007.13 1007.57 1007.96 1008.94 1010.29 1010.86 1011.47 1011.75 1011.87 1011.43 1011.30 1011.21 1011.05 1011.18 1011.00 1011.41 1011.90 1012.05 1012.60 1013.31 1014.27 1014.55 1013.82 1012.59 1012.04 1012.49 1011.62 1011.76 1012.03 1012.15 1012.53 1012.72
1004.73 1005.83 1006.77 1007.14 1006.46 1005.68 1004.93 1004.20 1004.13 1004.54 1005.07 1005.91 1006.58 1006.74 1007.86 1008.98 1009.70 1010.57 1011.11 1011.07 1011.30 1011.39 1011.71 1011.60 1011.86 1011.81 1012.03 1012.42 1012.85 1013.31 1013.39 1013.35 1013.61 1013.67 1013.54 1013.27 1013.18 1012.83 1012.59 1012.58 1012.72 1013.18 1013.18 1013.06
1005.33 1006.50 1007.37 1007.84 1006.92 1006.29 1004.67 1003.83 1003.55 1004.19 1004.89 1005.43 1006.08 1006.42 1007.27 1008.41 1009.22 1010.28 1010.28 1010.50 1011.04 1011.63 1012.06 1012.28 1012.31 1012.40 1012.74 1013.41 1014.09 1014.72 1014.90 1014.78 1014.70 1014.74 1014.70 1014.39 1014.33 1014.24 1014.14 1013.95 1013.82 1013.78 1013.48 1013.34
1005.18 1006.49 1007.93 1008.36 1007.86 1006.68 1004.60 1004.14 1004.12 1004.36 1005.46 1005.68 1006.22 1007.12 1008.03 1008.87 1009.79 1010.26 1010.32 1010.81 1011.31 1011.99 1012.83 1013.43 1013.52 1013.54 1013.97 1014.27 1014.93 1015.31 1015.74 1015.97 1016.24 1016.54 1016.32 1016.02 1015.78 1015.67 1015.14 1014.67 1014.23 1014.16 1013.59 1013.03
1005.56 1006.36 1007.52 1008.53 1008.15 1007.03 1005.10 1004.11 1004.11 1004.50 1005.80 1006.04 1006.74 1007.54 1008.36 1009.51 1010.42 1010.64 1010.91 1011.42 1011.89 1012.58 1013.14 1013.51 1013.93 1014.41 1014.92 1015.59 1015.81 1016.05 1016.49 1016.78 1017.03 1017.05 1016.74 1016.51 1016.15 1015.52 1015.21 1014.81 1014.17 1013.58 1013.41 1013.21
1005.90 1007.24 1007.94 1008.12 1007.72 1006.54 1005.05 1004.63 1004.54 1005.33 1006.51 1006.41 1007.15 1008.09 1008.98 1009.97 1010.86 1011.35 1011.48 1012.37 1012.86 1013.32 1013.66 1014.12 1014.52 1014.69 1015.01 1015.19 1015.64 1016.32 1016.74 1017.07 1017.07 1017.05 1016.72 1015.90 1015.62 1014.96 1014.79 1014.53 1014.14 1014.13 1013.99 1013.50
1006.35 1006.96 1007.60 1007.84 1007.38 1006.33 1004.88 1005.07 1005.47 1005.72 1006.43 1006.87 1007.71 1008.77 1009.74 1010.54 1011.43 1011.96 1012.67 1013.27 1013.82 1014.40 1014.95 1015.27 1015.28 1015.59 1015.66 1015.51 1015.59 1015.97 1016.07 1016.35 1016.13 1015.74 1015.39 1015.49 1015.20 1014.91 1014.90 1014.88 1014.53 1014.36 1013.78 1013.98
1005.82 1005.78 1006.19 1007.06 1006.67 1005.92 1005.64 1005.49 1005.37 1005.67 1006.38 1007.70 1008.18 1009.53 1010.03 1011.26 1012.07 1012.75 1013.59 1014.19 1014.74 1015.13 1015.43 1015.82 1016.35 1016.81 1016.76 1016.65 1016.62 1016.92 1016.64 1016.02 1015.86 1015.63 1015.80 1015.53 1015.40 1015.58 1015.34 1014.96 1014.67 1014.23 1014.13 1014.05
1005.47 1005.46 1005.77 1006.63 1006.53 1006.49 1006.41 1006.22 1006.35 1006.73 1006.86 1008.02 1008.84 1009.85 1010.73 1011.71 1012.85 1013.78 1014.41 1015.09 1015.62 1016.16 1016.46 1016.64 1016.73 1016.79 1016.90 1016.85 1016.81 1016.72 1016.80 1016.70 1016.62 1016.51 1016.30 1016.18 1016.09 1015.61 1015.25 1014.95 1014.52 1013.90 1013.32 1012.87
1005.24 1005.58 1006.43 1007.35 1007.47 1007.17 1007.13 1007.00 1006.99 1007.74 1008.16 1008.91 1010.00 1010.80 1011.72 1012.59 1013.80 1014.54 1015.32 1015.87 1016.18 1016.38 1016.54 1016.70 1016.90 1017.02 1017.13 1017.02 1016.87 1016.68 1016.73 1016.58 1016.72 1016.54 1016.24 1015.98 1015.76 1015.47 1014.84 1014.20 1013.78 1013.41 1013.02 1012.56
1005.29 1005.39 1005.98 1006.15 1005.99 1006.26 1006.99 1007.43 1007.65 1007.94 1008.93 1009.74 1010.37 1011.72 1012.63 1012.97 1013.96 1015.01 1015.89 1016.23 1016.51 1016.69 1016.82 1016.86 1016.85 1016.82 1016.82 1016.77 1016.67 1016.51 1016.33 1016.40 1016.53 1016.44 1016.29 1016.19 1016.04 1015.59 1015.12 1014.42 1013.56 1013.16 1012.54 1012.04
Thickness
5819 5800 5791 5805 5810 5814 5812 5808 5809 5813 5827 5813 5803 5809 5812 5816 5812 5807 5807 5803 5800 5803 5810 5808 5804 5802 5798 5793 5790 5787 5784 5780 5773 5762 5757 5756 5755 5756 5758 5758 5761 5761 5762 5763
5796 5789 5818 5821 5820 5817 5819 5809 5806 5825 5830 5816 5803 5806 5817 5816 5817 5816 5812 5807 5808 5804 5804 5806 5806 5802 5800 5796 5791 5786 5783 5780 5777 5771 5764 5759 5755 5757 5761 5765 5765 5764 5764 5763
5785 5810 5828 5822 5819 5816 5809 5809 5812 5813 5818 5817 5804 5790 5802 5813 5818 5817 5820 5818 5813 5812 5808 5808 5807 5806 5800 5797 5797 5792 5791 5787 5779 5775 5768 5759 5756 5755 5755 5761 5764 5764 5764 5766
5798 5822 5822 5819 5815 5818 5800 5829 5827 5814 5798 5772 5807 5749 5790 5804 5811 5818 5820 5817 5815 5813 5815 5813 5810 5806 5810 5809 5806 5800 5792 5792 5785 5779 5775 5773 5763 5752 5757 5757 5763 5769 5769 5766
5795 5812 5811 5807 5817 5826 5814 5837 5826 5827 5797 5789 5790 5765 5781 5804 5799 5808 5818 5815 5817 5822 5820 5818 5819 5820 5820 5814 5809 5807 5796 5788 5788 5785 5779 5778 5777 5775 5772 5769 5765 5765 5768 5767
5801 5824 5824 5824 5835 5834 5843 5829 5809 5794 5783 5763 5785 5770 5772 5799 5821 5818 5822 5822 5818 5814 5818 5825 5824 5822 5818 5816 5809 5802 5795 5787 5791 5788 5787 5782 5781 5778 5768 5764 5765 5766 5767 5767
5790 5805 5830 5838 5821 5832 5818 5790 5753 5758 5747 5753 5784 5781 5789 5804 5810 5823 5821 5802 5807 5813 5816 5816 5818 5818 5818 5813 5812 5807 5797 5792 5790 5790 5792 5788 5777 5774 5770 5766 5763 5763 5763 5765
5761 5768 5822 5839 5826 5814 5811 5795 5758 5745 5739 5760 5783 5771 5790 5802 5811 5826 5817 5812 5816 5816 5817 5814 5810 5806 5814 5819 5815 5810 5808 5802 5791 5790 5787 5781 5781 5780 5776 5774 5770 5767 5767 5768
5761 5778 5826 5829 5833 5825 5807 5791 5804 5760 5754 5750 5756 5779 5795 5800 5804 5809 5811 5814 5815 5818 5821 5818 5822 5811 5798 5794 5803 5809 5808 5805 5793 5792 5787 5785 5782 5776 5776 5776 5775 5772 5769 5769
5797 5768 5812 5827 5835 5829 5822 5815 5780 5760 5752 5749 5749 5760 5757 5780 5789 5797 5803 5808 5809 5805 5811 5807 5808 5794 5787 5786 5787 5790 5797 5791 5785 5780 5784 5785 5777 5768 5772 5771 5773 5769 5767 5767
5794 5782 5792 5811 5804 5805 5803 5790 5777 5769 5756 5734 5730 5750 5781 5781 5786 5792 5799 5799 5799 5799 5800 5797 5788 5792 5778 5783 5771 5776 5768 5747 5746 5717 5764 5773 5771 5769 5769 5769 5769 5767 5766 5763
5805 5775 5764 5787 5801 5817 5810 5795 5775 5757 5762 5743 5743 5750 5777 5781 5786 5792 5797 5801 5800 5798 5799 5792 5784 5779 5770 5767 5766 5760 5760 5750 5717 5725 5753 5747 5752 5763 5770 5761 5763 5763 5763 5761
5804 5770 5751 5763 5783 5806 5792 5797 5787 5766 5755 5745 5739 5751 5767 5775 5775 5782 5787 5788 5787 5786 5788 5784 5778 5774 5758 5753 5759 5748 5763 5762 5743 5711 5709 5752 5749 5759 5758 5753 5755 5758 5757 5756
5820 5773 5773 5754 5772 5783 5782 5789 5787 5771 5749 5749 5751 5772 5760 5765 5766 5767 5770 5770 5768 5771 5775 5776 5768 5766 5764 5756 5768 5752 5763 5776 5742 5720 5713 5726 5745 5753 5751 5750 5755 5753 5747 5749
5812 5780 5781 5781 5789 5790 5785 5785 5786 5777 5771 5760 5775 5768 5787 5776 5764 5767 5767 5764 5760 5763 5763 5765 5762 5752 5760 5766 5762 5753 5748 5732 5723 5712 5716 5732 5741 5744 5748 5749 5746 5745 5742 5741
5802 5772 5782 5773 5781 5784 5782 5784 5785 5785 5777 5773 5771 5777 5789 5779 5767 5762 5757 5752 5749 5754 5754 5755 5754 5751 5751 5747 5745 5743 5736 5729 5717 5714 5722 5731 5738 5736 5740 5740 5739 5737 5731 5728
5784 5769 5758 5754 5764 5773 5760 5787 5788 5793 5793 5776 5766 5785 5779 5772 5771 5759 5754 5755 5749 5749 5748 5749 5748 5748 5743 5738 5731 5723 5725 5726 5719 5715 5716 5720 5720 5720 5722 5722 5718 5711 5710 5710
5773 5760 5744 5742 5756 5736 5773 5794 5802 5788 5786 5789 5783 5783 5782 5775 5772 5759 5759 5757 5753 5747 5744 5741 5738 5739 5732 5723 5714 5707 5704 5706 5705 5702 5699 5699 5696 5696 5695 5695 5696 5695 5695 5694
5780 5756 5735 5732 5730 5752 5782 5790 5790 5782 5775 5786 5781 5776 5773 5769 5763 5757 5757 5752 5747 5741 5731 5724 5722 5719 5713 5709 5704 5701 5696 5693 5690 5683 5683 5684 5684 5682 5682 5684 5686 5683 5686 5688
5768 5757 5748 5725 5734 5726 5760 5789 5796 5790 5743 5782 5778 5770 5765 5759 5737 5742 5748 5745 5737 5732 5727 5723 5718 5712 5704 5693 5691 5686 5681 5676 5672 5671 5673 5673 5673 5676 5675 5675 5677 5677 5677 5676
5750 5736 5732 5723 5729 5741 5772 5786 5791 5753 5747 5776 5771 5762 5758 5746 5739 5735 5738 5729 5725 5719 5716 5713 5710 5707 5702 5699 5691 5680 5673 5667 5665 5662 5661 5666 5664 5667 5665 5662 5661 5659 5656 5658
5741 5732 5730 5723 5724 5736 5786 5783 5763 5765 5766 5764 5758 5748 5739 5735 5731 5727 5721 5714 5709 5703 5696 5693 5691 5688 5687 5687 5685 5680 5676 5669 5666 5667 5668 5661 5657 5657 5652 5648 5646 5643 5643 5637
5742 5753 5748 5744 5742 5765 5771 5776 5775 5772 5762 5752 5748 5739 5735 5724 5718 5714 5706 5700 5694 5688 5684 5677 5670 5664 5663 5664 5663 5657 5657 5660 5658 5657 5649 5647 5644 5636 5633 5632 5630 5628 5622 5617
5761 5762 5752 5751 5760 5758 5760 5764 5765 5762 5757 5748 5741 5732 5725 5714 5706 5697 5691 5685 5680 5672 5666 5662 5659 5657 5655 5652 5649 5647 5643 5640 5639 5636 5633 5630 5624 5625 5622 5618 5615 5613 5613 5614
5752 5753 5738 5731 5741 5748 5750 5753 5753 5746 5742 5735 5725 5717 5708 5701 5690 5683 5674 5667 5662 5659 5658 5654 5651 5647 5644 5641 5639 5637 5633 5631 5626 5623 5622 5619 5616 5612 5612 5611 5607 5604 5600 5598
5748 5743 5733 5728 5749 5745 5741 5741 5742 5738 5728 5720 5712 5699 5692 5689 5679 5670 5661 5656 5651 5647 5645 5644 5641 5639 5637 5633 5630 5629 5626 5622 5616 5612 5608 5602 5598 5596 5594 5595 5597 5592 5589 5587